sat.trackr.live / text

‹ back to catalog

OVZON-3

NORAD 58698 · 2024-003A

PAYLOAD ACTIVE UNKNOWN

§ Identity

Operator
Country
SWED
Launch date
2024-01-03
Launch site
AFETR
Launch vehicle
Mass (kg)
RCS (m²)

Purposes: comms

External: N2YO · Heavens-Above · Gunter

§ Orbital elements

Epoch: 2026-05-25T04:01:38.129952Z

Period
1,436.07 min
Inclination
0.0095°
Eccentricity
0.0000109
Mean motion
1.00273907 rev/d
Perigee alt
35,785.5 km
Apogee alt
35,786.5 km
Semi-major
42,164.1 km
B*
0.0000e+0
RAAN
248.9877°
Arg perigee
193.4561°
Mean anomaly
280.3943°
Rev number
721

§ Raw data

OVZON-31 58698U 24003A   26145.16780243  .00000049  00000+0  00000+0 0  99952 58698   0.0095 248.9877 0000109 193.4561 280.3943  1.00273907  7214

JSON: /api/v1/satellites/58698 · /tle

For live sub-satellite position, see the globe view (requires WebGL).

§ Visibility from observer

Set your observer location to see the next 7 days of passes ≥ 10°. The values pass through the URL so the page stays shareable.

No JS? Fill the form by hand. The geolocation button needs JavaScript.